Weather History for Pittsburgh, PA

Change the Weather History Date:

Sunday, April 3, 2011

  Actual Average Record
Temperature  
Mean Temperature 43 °F 46 °F  
Max Temperature 55 °F 57 °F 84 °F (2010)
Min Temperature 31 °F 36 °F 21 °F (1954)
Degree Days  
Heating Degree Days 22 19  
Month to date heating degree days 72 57  
Since 1 July heating degree days 5366 5102  
Cooling Degree Days 0 0  
Month to date cooling degree days 0 0  
Year to date cooling degree days 0 1  
Moisture  
Dew Point 29 °F    
Average Humidity 67    
Maximum Humidity 92    
Minimum Humidity 41    
Precipitation  
Precipitation 0.01 in 0.11 in 2.05 in (1901)
Month to date precipitation 0.24 0.32  
Year to date precipitation 12.61 8.36  
Snow  
Snow 0.00 in 0.10 in 12.70 in (1901)
Month to date snowfall 0.8 0.3  
Since 1 July snowfall 56.7 40.2  
Snow Depth 0.00 in    
Sea Level Pressure  
Sea Level Pressure 29.98 in    
Wind  
Wind Speed 7 mph (South)    
Max Wind Speed 17 mph    
Max Gust Speed 22 mph    
Visibility 10 miles    
Events Rain , Thunderstorm    
T = Trace of Precipitation, MM = Missing Value Source: NWS Daily Summary

Daily Weather History Graph

Daily Weather History Graph

Search for Another Location

Airport:

Trip Planner

Search our weather history database for the weather conditions in past years. The results will help you decide how hot, cold, wet, or windy it might be!

Date:

Astronomy

Apr. 03, 2011 Rise Set
Actual Time 7:01 AM EDT 7:47 PM EDT
Civil Twilight 6:34 AM EDT 8:14 PM EDT
Nautical Twilight 6:01 AM EDT 8:47 PM EDT
Astronomical Twilight 5:27 AM EDT 9:21 PM EDT
Moon 6:38 AM EDT (4/3) 8:12 PM EDT (4/3)
Length of Visible Light 13h 40m
Length of Day
12h 45m
New Moon, 0% of the Moon is Illuminated
Apr 3
New Moon
Apr 11
First Quarter
Apr 17
Full
Apr 24
Last Quarter
May 3
New

Hourly Weather History & Observations

Time (EDT) Temp. Windchill Dew Point Humidity Pressure Visibility Wind Dir Wind Speed Gust Speed Precip Events Conditions
12:51 AM 34.0 °F 27.2 °F 30.9 °F 89% 29.98 in 8.0 mi West 8.1 mph - N/A   Partly Cloudy
1:51 AM 35.1 °F 28.6 °F 30.9 °F 85% 29.99 in 10.0 mi West 8.1 mph - N/A   Mostly Cloudy
2:51 AM 35.1 °F 28.6 °F 30.9 °F 85% 30.00 in 10.0 mi West 8.1 mph - N/A   Scattered Clouds
3:51 AM 34.0 °F 28.8 °F 30.9 °F 89% 30.02 in 9.0 mi West 5.8 mph - N/A   Partly Cloudy
4:51 AM 33.1 °F 30.0 °F 30.0 °F 89% 30.04 in 9.0 mi West 3.5 mph - N/A   Partly Cloudy
5:51 AM 33.1 °F 26.9 °F 28.9 °F 85% 30.06 in 8.0 mi West 6.9 mph - N/A   Clear
6:51 AM 30.9 °F 25.2 °F 28.0 °F 89% 30.10 in 8.0 mi West 5.8 mph - N/A   Clear
7:51 AM 33.1 °F - 28.9 °F 85% 30.12 in 7.0 mi Calm Calm - N/A   Mostly Cloudy
8:51 AM 37.0 °F 33.3 °F 30.9 °F 79% 30.13 in 9.0 mi West 4.6 mph - N/A   Mostly Cloudy
9:51 AM 39.9 °F - 30.9 °F 70% 30.12 in 10.0 mi Calm Calm - N/A   Mostly Cloudy
10:51 AM 44.1 °F 42.5 °F 30.0 °F 58% 30.13 in 10.0 mi WNW 3.5 mph - N/A   Mostly Cloudy
11:51 AM 46.0 °F - 27.0 °F 47% 30.13 in 10.0 mi Calm Calm - N/A   Mostly Cloudy
12:51 PM 46.0 °F 43.1 °F 26.1 °F 46% 30.10 in 10.0 mi SW 5.8 mph - N/A   Overcast
1:51 PM 46.0 °F 41.9 °F 25.0 °F 44% 30.10 in 10.0 mi SSW 8.1 mph - N/A   Overcast
2:51 PM 46.9 °F - 25.0 °F 42% 30.06 in 10.0 mi SW 5.8 mph - N/A   Overcast
3:51 PM 45.0 °F 42.6 °F 30.0 °F 56% 30.03 in 10.0 mi SE 4.6 mph - 0.00 in   Overcast
4:51 PM 46.0 °F 41.4 °F 30.0 °F 54% 29.97 in 10.0 mi SE 9.2 mph - N/A   Overcast
5:51 PM 46.0 °F 39.6 °F 30.9 °F 56% 29.89 in 10.0 mi ESE 15.0 mph - N/A   Overcast
6:32 PM 46.4 °F 40.4 °F 30.2 °F 53% 29.81 in 10.0 mi ESE 13.8 mph - 0.00 in Rain , Thunderstorm Light Thunderstorms and Rain
6:51 PM 45.0 °F 39.3 °F 32.0 °F 60% 29.86 in 10.0 mi ESE 11.5 mph - 0.01 in   Overcast
7:51 PM 45.0 °F 38.5 °F 32.0 °F 60% 29.82 in 10.0 mi ESE 13.8 mph - N/A   Overcast
8:51 PM 44.1 °F 38.6 °F 32.0 °F 63% 29.82 in 10.0 mi East 10.4 mph - N/A   Mostly Cloudy
9:51 PM 46.0 °F 40.6 °F 30.9 °F 56% 29.78 in 10.0 mi ESE 11.5 mph 21.9 mph N/A   Overcast
10:51 PM 48.9 °F - 28.9 °F 46% 29.75 in 10.0 mi ESE 10.4 mph - N/A   Overcast
11:51 PM 52.0 °F - 28.0 °F 40% 29.70 in 10.0 mi SE 11.5 mph - N/A   Overcast